• en Suisse
  • Liste des pays
  • À 7 jours
  • Température de l'eau
  • Carte satellitaire
  • Carte météo
  • Widgets météo
  • user-avatar
    Se connecter

    Météo par heure à Dunedin

    Ce jour, 22 Janvier, Lundi

    Heure Température Précipitation Vent Pression Humidité
    00:00 +17°C° 0,2 mm 3 m/s 749 mmHg 97%
    01:00 +17°C° 0,2 mm 2 m/s 749 mmHg 97%
    02:00 +17°C° 0,2 mm 2 m/s 748 mmHg 98%
    03:00 +17°C° 0,2 mm 2 m/s 748 mmHg 97%
    04:00 +18°C° 0,2 mm 1 m/s 748 mmHg 96%
    05:00 +18°C° 0,2 mm 1 m/s 748 mmHg 96%
    06:00 +19°C° 0,1 mm 1 m/s 748 mmHg 94%
    07:00 +19°C° 0,1 mm 1 m/s 748 mmHg 92%
    08:00 +18°C° 0,1 mm 0 m/s 748 mmHg 91%
    09:00 +19°C° 0,2 mm 0 m/s 748 mmHg 87%
    10:00 +22°C° 0,2 mm 1 m/s 748 mmHg 84%
    11:00 +23°C° 0,2 mm 1 m/s 748 mmHg 80%
    12:00 +23°C° 0,1 mm 1 m/s 747 mmHg 76%
    13:00 +24°C° 0,1 mm 2 m/s 747 mmHg 72%
    14:00 +25°C° 0,1 mm 2 m/s 747 mmHg 68%
    15:00 +25°C° 0,3 mm 2 m/s 747 mmHg 71%
    16:00 +24°C° 0,3 mm 2 m/s 747 mmHg 74%
    17:00 +23°C° 0,3 mm 2 m/s 747 mmHg 78%
    18:00 +21°C° 0,1 mm 2 m/s 747 mmHg 83%
    19:00 +19°C° 0,1 mm 2 m/s 748 mmHg 89%
    20:00 +17°C° 0,1 mm 2 m/s 748 mmHg 95%
    21:00 +17°C° 0 mm 2 m/s 748 mmHg 95%
    22:00 +17°C° 0 mm 3 m/s 748 mmHg 96%
    23:00 +17°C° 0 mm 3 m/s 748 mmHg 96%

    Demain, 23 Janvier, Mardi

    Heure Température Précipitation Vent Pression Humidité
    00:00 +17°C° 0 mm 3 m/s 748 mmHg 95%
    01:00 +17°C° 0 mm 3 m/s 748 mmHg 94%
    02:00 +17°C° 0 mm 3 m/s 747 mmHg 93%
    03:00 +16°C° 0 mm 3 m/s 747 mmHg 92%
    04:00 +16°C° 0 mm 3 m/s 747 mmHg 92%
    05:00 +16°C° 0 mm 3 m/s 747 mmHg 91%
    06:00 +19°C° 0 mm 3 m/s 747 mmHg 82%
    07:00 +21°C° 0 mm 4 m/s 747 mmHg 73%
    08:00 +25°C° 0 mm 4 m/s 747 mmHg 64%
    09:00 +27°C° 0 mm 4 m/s 747 mmHg 57%
    10:00 +28°C° 0 mm 4 m/s 747 mmHg 50%
    11:00 +30°C° 0 mm 5 m/s 746 mmHg 43%
    12:00 +32°C° 0 mm 5 m/s 746 mmHg 42%
    13:00 +33°C° 0 mm 5 m/s 746 mmHg 41%
    14:00 +33°C° 0 mm 6 m/s 745 mmHg 40%
    15:00 +32°C° 0 mm 6 m/s 745 mmHg 46%
    16:00 +30°C° 0 mm 5 m/s 745 mmHg 52%
    17:00 +28°C° 0 mm 5 m/s 745 mmHg 57%
    18:00 +26°C° 0 mm 5 m/s 745 mmHg 62%
    19:00 +23°C° 0 mm 4 m/s 745 mmHg 67%
    20:00 +21°C° 0 mm 3 m/s 745 mmHg 72%
    21:00 +20°C° 0 mm 3 m/s 745 mmHg 74%
    22:00 +20°C° 0 mm 3 m/s 746 mmHg 76%
    23:00 +19°C° 0 mm 3 m/s 746 mmHg 78%

    Après-demain, 24 Janvier, Mercredi

    Heure Température Précipitation Vent Pression Humidité
    00:00 +18°C° 0 mm 2 m/s 746 mmHg 79%
    01:00 +18°C° 0 mm 2 m/s 745 mmHg 80%
    02:00 +17°C° 0 mm 2 m/s 745 mmHg 82%
    03:00 +17°C° 0 mm 2 m/s 745 mmHg 81%
    04:00 +18°C° 0 mm 2 m/s 746 mmHg 80%
    05:00 +18°C° 0 mm 2 m/s 746 mmHg 80%
    06:00 +19°C° 0 mm 2 m/s 746 mmHg 79%
    07:00 +20°C° 0 mm 2 m/s 747 mmHg 77%
    08:00 +21°C° 0 mm 2 m/s 747 mmHg 76%
    09:00 +21°C° 0,1 mm 2 m/s 747 mmHg 76%
    10:00 +22°C° 0,1 mm 3 m/s 748 mmHg 76%
    11:00 +22°C° 0,1 mm 3 m/s 748 mmHg 76%
    12:00 +21°C° 0,2 mm 3 m/s 748 mmHg 79%
    13:00 +21°C° 0,2 mm 3 m/s 748 mmHg 82%
    14:00 +20°C° 0,2 mm 3 m/s 748 mmHg 84%
    15:00 +20°C° 0 mm 2 m/s 748 mmHg 84%
    16:00 +19°C° 0 mm 2 m/s 749 mmHg 83%
    17:00 +19°C° 0 mm 2 m/s 749 mmHg 83%
    18:00 +19°C° 0 mm 2 m/s 750 mmHg 84%
    19:00 +19°C° 0 mm 1 m/s 750 mmHg 86%
    20:00 +18°C° 0 mm 1 m/s 751 mmHg 88%
    21:00 +17°C° 0 mm 2 m/s 751 mmHg 90%
    22:00 +17°C° 0 mm 2 m/s 751 mmHg 91%
    23:00 +17°C° 0 mm 3 m/s 751 mmHg 93%

    25 Janvier, Jeudi

    Heure Température Précipitation Vent Pression Humidité
    00:00 +17°C° 0 mm 3 m/s 751 mmHg 94%
    01:00 +17°C° 0 mm 3 m/s 751 mmHg 96%
    02:00 +17°C° 0 mm 3 m/s 750 mmHg 97%
    03:00 +16°C° 0 mm 3 m/s 751 mmHg 97%
    04:00 +16°C° 0 mm 3 m/s 751 mmHg 97%
    05:00 +16°C° 0 mm 3 m/s 751 mmHg 97%
    06:00 +18°C° 0 mm 2 m/s 751 mmHg 88%
    07:00 +21°C° 0 mm 2 m/s 751 mmHg 79%
    08:00 +24°C° 0 mm 2 m/s 751 mmHg 70%
    09:00 +25°C° 0 mm 2 m/s 751 mmHg 62%
    10:00 +27°C° 0 mm 3 m/s 751 mmHg 54%
    11:00 +28°C° 0 mm 3 m/s 750 mmHg 46%
    12:00 +28°C° 0 mm 3 m/s 750 mmHg 47%
    13:00 +28°C° 0 mm 3 m/s 750 mmHg 49%
    14:00 +28°C° 0 mm 3 m/s 749 mmHg 50%
    15:00 +27°C° 0 mm 3 m/s 750 mmHg 59%
    16:00 +25°C° 0 mm 3 m/s 750 mmHg 69%
    17:00 +22°C° 0 mm 3 m/s 750 mmHg 78%
    18:00 +21°C° 0 mm 2 m/s 751 mmHg 84%
    19:00 +20°C° 0 mm 2 m/s 751 mmHg 91%
    20:00 +18°C° 0 mm 2 m/s 752 mmHg 97%
    21:00 +19°C° 0 mm 1 m/s 752 mmHg 97%
    22:00 +19°C° 0 mm 1 m/s 752 mmHg 97%
    23:00 +18°C° 0 mm 1 m/s 753 mmHg 98%

    26 Janvier, Vendredi

    Heure Température Précipitation Vent Pression Humidité
    00:00 +18°C° 0 mm 1 m/s 753 mmHg 98%
    01:00 +18°C° 0 mm 1 m/s 753 mmHg 97%
    02:00 +18°C° 0 mm 1 m/s 753 mmHg 97%
    03:00 +18°C° 0,1 mm 1 m/s 753 mmHg 97%
    04:00 +18°C° 0,1 mm 1 m/s 754 mmHg 97%
    05:00 +18°C° 0,1 mm 1 m/s 754 mmHg 97%
    06:00 +18°C° 0,1 mm 2 m/s 755 mmHg 93%
    07:00 +19°C° 0,1 mm 2 m/s 755 mmHg 88%
    08:00 +20°C° 0,1 mm 2 m/s 755 mmHg 84%
    09:00 +21°C° 0 mm 3 m/s 755 mmHg 81%
    10:00 +21°C° 0 mm 4 m/s 755 mmHg 78%
    11:00 +22°C° 0 mm 5 m/s 755 mmHg 75%
    12:00 +22°C° 0 mm 5 m/s 755 mmHg 75%
    13:00 +22°C° 0 mm 5 m/s 755 mmHg 75%
    14:00 +22°C° 0 mm 6 m/s 755 mmHg 75%
    15:00 +22°C° 0 mm 6 m/s 755 mmHg 77%
    16:00 +22°C° 0 mm 6 m/s 754 mmHg 78%
    17:00 +21°C° 0 mm 6 m/s 754 mmHg 79%
    18:00 +20°C° 0 mm 6 m/s 755 mmHg 84%
    19:00 +19°C° 0 mm 6 m/s 755 mmHg 89%
    20:00 +16°C° 0 mm 5 m/s 755 mmHg 94%
    21:00 +16°C° 0 mm 5 m/s 755 mmHg 95%
    22:00 +16°C° 0 mm 5 m/s 755 mmHg 96%
    23:00 +15°C° 0 mm 5 m/s 755 mmHg 97%

    27 Janvier, Samedi

    Heure Température Précipitation Vent Pression Humidité
    00:00 +15°C° 0 mm 5 m/s 755 mmHg 97%
    01:00 +15°C° 0 mm 5 m/s 755 mmHg 97%
    02:00 +15°C° 0 mm 5 m/s 754 mmHg 96%
    03:00 +17°C° 0 mm 4 m/s 754 mmHg 95%
    04:00 +17°C° 0 mm 4 m/s 754 mmHg 94%
    05:00 +17°C° 0 mm 4 m/s 754 mmHg 93%
    06:00 +20°C° 0 mm 4 m/s 754 mmHg 84%
    07:00 +22°C° 0 mm 4 m/s 754 mmHg 76%
    08:00 +26°C° 0 mm 3 m/s 754 mmHg 67%
    09:00 +27°C° 0 mm 4 m/s 754 mmHg 61%
    10:00 +29°C° 0 mm 4 m/s 753 mmHg 55%
    11:00 +30°C° 0 mm 4 m/s 753 mmHg 49%
    12:00 +30°C° 0,1 mm 4 m/s 753 mmHg 49%
    13:00 +30°C° 0,1 mm 4 m/s 752 mmHg 48%
    14:00 +29°C° 0,1 mm 4 m/s 752 mmHg 48%
    15:00 +29°C° 0 mm 3 m/s 752 mmHg 50%
    16:00 +29°C° 0 mm 3 m/s 752 mmHg 52%
    17:00 +28°C° 0 mm 3 m/s 752 mmHg 54%
    18:00 +26°C° 0 mm 2 m/s 752 mmHg 64%
    19:00 +24°C° 0 mm 2 m/s 753 mmHg 74%
    20:00 +21°C° 0 mm 1 m/s 753 mmHg 84%
    21:00 +21°C° 0,1 mm 1 m/s 753 mmHg 86%
    22:00 +21°C° 0,1 mm 1 m/s 753 mmHg 87%
    23:00 +21°C° 0,1 mm 1 m/s 753 mmHg 88%
    Voir plus